Weather History for Sioux City, IA

Change the Weather History Date:

Monday, June 17, 2013

  Actual Average Record
Temperature  
Mean Temperature 72 °F 71 °F  
Max Temperature 87 °F 83 °F 98 °F (1959)
Min Temperature 56 °F 59 °F 43 °F (1915)
Degree Days  
Heating Degree Days 0 1  
Month to date heating degree days 40 23  
Since 1 June heating degree days 40 23  
Since 1 July heating degree days 7092 6857  
Cooling Degree Days 7 7  
Month to date cooling degree days 47 84  
Year to date cooling degree days 103 148  
Since 1 June cooling degree days 47 84  
Growing Degree Days 21 (Base 50)    
Moisture  
Dew Point 56 °F    
Average Humidity 62    
Maximum Humidity 93    
Minimum Humidity 31    
Precipitation  
Precipitation 0.00 in 0.12 in 1.95 in (1906)
Month to date precipitation 1.69 2.25  
Year to date precipitation 15.02 12.23  
Snow  
Snow 0.00 in 0.00 in 0.00 in ()
Month to date snowfall 0.0 0.0  
Since 1 June snowfall 0.0 0.0  
Since 1 July snowfall 45.1 34.8  
Snow Depth 0.00 in    
Sea Level Pressure  
Sea Level Pressure 29.98 in    
Wind  
Wind Speed 7 mph (NNW)    
Max Wind Speed 18 mph    
Max Gust Speed 23 mph    
Visibility 10 miles    
Events      
T = Trace of Precipitation, MM = Missing Value Source: NWS Daily Summary

Daily Weather History Graph

Daily Weather History Graph

Search for Another Location

Airport:

Trip Planner

Search our weather history database for the weather conditions in past years. The results will help you decide how hot, cold, wet, or windy it might be!

Date:

Astronomy

Jun. 17, 2013 Rise Set
Actual Time 5:48 AM CDT 9:05 PM CDT
Civil Twilight 5:13 AM CDT 9:39 PM CDT
Nautical Twilight 4:28 AM CDT 10:24 PM CDT
Astronomical Twilight 3:33 AM CDT 11:19 PM CDT
Moon 2:39 PM CDT (6/17) 1:31 AM CDT (6/17)
Length of Visible Light 16h 26m
Length of Day
15h 16m
First Quarter, 60% of the Moon is Illuminated
Jun 17
First Quarter
Jun 23
Full
Jun 29
Last Quarter
Jul 8
New
Jul 15
First Quarter

Hourly Weather History & Observations

Time (CDT) Temp. Heat Index Dew Point Humidity Pressure Visibility Wind Dir Wind Speed Gust Speed Precip Events Conditions
12:52 AM 62.1 °F - 55.9 °F 80% 29.96 in 10.0 mi Calm Calm - N/A   Clear
1:52 AM 62.1 °F - 57.0 °F 84% 29.96 in 10.0 mi NW 8.1 mph - N/A   Clear
2:52 AM 61.0 °F - 57.0 °F 87% 29.95 in 10.0 mi NNW 5.8 mph - N/A   Clear
3:52 AM 59.0 °F - 55.9 °F 90% 29.95 in 10.0 mi WNW 3.5 mph - N/A   Clear
4:52 AM 57.9 °F - 55.0 °F 90% 29.95 in 10.0 mi Calm Calm - N/A   Clear
5:52 AM 55.9 °F - 54.0 °F 93% 29.98 in 10.0 mi WSW 3.5 mph - N/A   Clear
6:52 AM 57.9 °F - 55.9 °F 93% 30.01 in 10.0 mi Calm Calm - N/A   Clear
7:52 AM 66.0 °F - 57.0 °F 73% 30.00 in 10.0 mi Calm Calm - N/A   Clear
8:52 AM 69.1 °F - 57.0 °F 65% 30.01 in 10.0 mi NW 5.8 mph - N/A   Clear
9:52 AM 73.9 °F - 57.9 °F 57% 30.01 in 10.0 mi WNW 4.6 mph - N/A   Clear
10:52 AM 77.0 °F - 59.0 °F 54% 30.00 in 10.0 mi NW 6.9 mph - N/A   Clear
11:52 AM 80.1 °F 80.7 °F 59.0 °F 48% 30.01 in 10.0 mi NNW 8.1 mph - N/A   Clear
12:52 PM 82.0 °F 82.1 °F 59.0 °F 45% 30.01 in 10.0 mi North 5.8 mph - N/A   Clear
1:52 PM 84.0 °F 83.5 °F 57.9 °F 41% 30.00 in 10.0 mi North 13.8 mph 17.3 mph N/A   Clear
2:52 PM 84.0 °F 83.0 °F 55.9 °F 38% 29.99 in 10.0 mi North 12.7 mph 19.6 mph N/A   Clear
3:52 PM 87.1 °F 84.9 °F 53.1 °F 31% 29.99 in 10.0 mi NW 17.3 mph 23.0 mph N/A   Clear
4:52 PM 84.9 °F - 51.1 °F 31% 29.97 in 10.0 mi North 12.7 mph - N/A   Clear
5:52 PM 84.0 °F 82.5 °F 53.1 °F 34% 29.96 in 10.0 mi North 15.0 mph - N/A   Clear
6:52 PM 82.0 °F 81.3 °F 54.0 °F 38% 29.96 in 10.0 mi North 12.7 mph - N/A   Clear
7:52 PM 79.0 °F - 54.0 °F 42% 29.96 in 10.0 mi North 10.4 mph - N/A   Clear
8:52 PM 75.9 °F - 53.1 °F 45% 29.97 in 10.0 mi NNW 8.1 mph - N/A   Clear
9:52 PM 72.0 °F - 52.0 °F 49% 29.99 in 10.0 mi NNW 5.8 mph - N/A   Clear
10:52 PM 69.1 °F - 53.1 °F 57% 30.01 in 10.0 mi NNW 3.5 mph - N/A   Clear
11:52 PM 64.9 °F - 55.0 °F 70% 30.01 in 10.0 mi NW 3.5 mph - N/A   Clear